Year,Month,Day,Hour,Minute,Value (Times are PST for temperature in C)
2009,04,03,00,00,3.10
2009,04,03,00,01,3.00
2009,04,03,00,02,3.10
2009,04,03,00,03,3.10
2009,04,03,00,04,3.10
2009,04,03,00,05,3.10
2009,04,03,00,06,3.10
2009,04,03,00,07,3.10
2009,04,03,00,08,3.10
2009,04,03,00,09,3.10
2009,04,03,00,10,3.10
2009,04,03,00,11,3.10
2009,04,03,00,12,3.10
2009,04,03,00,13,3.10
2009,04,03,00,14,3.10
2009,04,03,00,15,3.10
2009,04,03,00,16,3.10
2009,04,03,00,17,3.10
2009,04,03,00,18,3.10
2009,04,03,00,19,3.10
2009,04,03,00,20,3.10
2009,04,03,00,21,3.10
2009,04,03,00,22,3.20
2009,04,03,00,23,3.20
2009,04,03,00,24,3.20
2009,04,03,00,25,3.20
2009,04,03,00,26,3.20
2009,04,03,00,27,3.20
2009,04,03,00,28,3.20
2009,04,03,00,29,3.20
2009,04,03,00,30,3.20
2009,04,03,00,31,3.20
2009,04,03,00,32,3.20
2009,04,03,00,33,3.20
2009,04,03,00,34,3.20
2009,04,03,00,35,3.20
2009,04,03,00,36,3.20
2009,04,03,00,37,3.20
2009,04,03,00,38,3.20
2009,04,03,00,39,3.20
2009,04,03,00,40,3.20
2009,04,03,00,41,3.20
2009,04,03,00,42,3.20
2009,04,03,00,43,3.20
2009,04,03,00,44,3.20
2009,04,03,00,45,3.20
2009,04,03,00,46,3.20
2009,04,03,00,47,3.20
2009,04,03,00,48,3.20
2009,04,03,00,49,3.20
2009,04,03,00,50,3.20
2009,04,03,00,51,3.20
2009,04,03,00,52,3.20
2009,04,03,00,53,3.20
2009,04,03,00,54,3.20
2009,04,03,00,55,3.20
2009,04,03,00,56,3.20
2009,04,03,00,57,3.20
2009,04,03,00,58,3.20
2009,04,03,00,59,3.20
2009,04,03,01,00,3.20
2009,04,03,01,01,3.20
2009,04,03,01,02,3.20
2009,04,03,01,03,3.20
2009,04,03,01,04,3.20
2009,04,03,01,05,3.20
2009,04,03,01,06,3.20
2009,04,03,01,07,3.20
2009,04,03,01,08,3.20
2009,04,03,01,09,3.20
2009,04,03,01,10,3.20
2009,04,03,01,11,3.20
2009,04,03,01,12,3.10
2009,04,03,01,13,3.20
2009,04,03,01,14,3.20
2009,04,03,01,15,3.20
2009,04,03,01,16,3.20
2009,04,03,01,17,3.20
2009,04,03,01,18,3.20
2009,04,03,01,19,3.20
2009,04,03,01,20,3.20
2009,04,03,01,21,3.20
2009,04,03,01,22,3.20
2009,04,03,01,23,3.20
2009,04,03,01,24,3.20
2009,04,03,01,25,3.20
2009,04,03,01,26,3.20
2009,04,03,01,27,3.20
2009,04,03,01,28,3.20
2009,04,03,01,29,3.20
2009,04,03,01,30,3.20
2009,04,03,01,31,3.20
2009,04,03,01,32,3.20
2009,04,03,01,33,3.10
2009,04,03,01,34,3.10
2009,04,03,01,35,3.10
2009,04,03,01,36,3.10
2009,04,03,01,37,3.10
2009,04,03,01,38,3.10
2009,04,03,01,39,3.10
2009,04,03,01,40,3.10
2009,04,03,01,41,3.10
2009,04,03,01,42,3.10
2009,04,03,01,43,3.10
2009,04,03,01,44,3.10
2009,04,03,01,45,3.10
2009,04,03,01,46,3.10
2009,04,03,01,47,3.10
2009,04,03,01,48,3.10
2009,04,03,01,49,3.10
2009,04,03,01,50,3.00
2009,04,03,01,51,3.00
2009,04,03,01,52,3.00
2009,04,03,01,53,3.00
2009,04,03,01,54,3.00
2009,04,03,01,55,3.00
2009,04,03,01,56,3.00
2009,04,03,01,57,3.00
2009,04,03,01,58,2.90
2009,04,03,01,59,2.90
2009,04,03,02,00,2.90
2009,04,03,02,01,2.90
2009,04,03,02,02,2.90
2009,04,03,02,03,2.90
2009,04,03,02,04,2.90
2009,04,03,02,05,2.90
2009,04,03,02,06,2.90
2009,04,03,02,07,2.90
2009,04,03,02,08,2.90
2009,04,03,02,09,2.90
2009,04,03,02,10,2.90
2009,04,03,02,11,2.90
2009,04,03,02,12,2.90
2009,04,03,02,13,2.90
2009,04,03,02,14,2.90
2009,04,03,02,15,2.90
2009,04,03,02,16,2.90
2009,04,03,02,17,2.90
2009,04,03,02,18,2.90
2009,04,03,02,19,2.90
2009,04,03,02,20,2.80
2009,04,03,02,21,2.80
2009,04,03,02,22,2.80
2009,04,03,02,23,2.80
2009,04,03,02,24,2.80
2009,04,03,02,25,2.80
2009,04,03,02,26,2.80
2009,04,03,02,27,2.80
2009,04,03,02,28,2.80
2009,04,03,02,29,2.80
2009,04,03,02,30,2.70
2009,04,03,02,31,2.70
2009,04,03,02,32,2.70
2009,04,03,02,33,2.70
2009,04,03,02,34,2.60
2009,04,03,02,35,2.60
2009,04,03,02,36,2.60
2009,04,03,02,37,2.60
2009,04,03,02,38,2.60
2009,04,03,02,39,2.60
2009,04,03,02,40,2.60
2009,04,03,02,41,2.50
2009,04,03,02,42,2.50
2009,04,03,02,43,2.50
2009,04,03,02,44,2.50
2009,04,03,02,45,2.50
2009,04,03,02,46,2.40
2009,04,03,02,47,2.40
2009,04,03,02,48,2.40
2009,04,03,02,49,2.40
2009,04,03,02,50,2.40
2009,04,03,02,51,2.30
2009,04,03,02,52,2.30
2009,04,03,02,53,2.30
2009,04,03,02,54,2.30
2009,04,03,02,55,2.30
2009,04,03,02,56,2.20
2009,04,03,02,57,2.20
2009,04,03,02,58,2.20
2009,04,03,02,59,2.20
2009,04,03,03,00,2.10
2009,04,03,03,01,2.10
2009,04,03,03,02,2.10
2009,04,03,03,03,2.10
2009,04,03,03,04,2.10
2009,04,03,03,05,2.10
2009,04,03,03,06,2.10
2009,04,03,03,07,2.10
2009,04,03,03,08,2.00
2009,04,03,03,09,2.00
2009,04,03,03,10,2.00
2009,04,03,03,11,1.90
2009,04,03,03,12,1.90
2009,04,03,03,13,1.90
2009,04,03,03,14,1.90
2009,04,03,03,15,1.90
2009,04,03,03,16,1.80
2009,04,03,03,17,1.80
2009,04,03,03,18,1.80
2009,04,03,03,19,1.80
2009,04,03,03,20,1.80
2009,04,03,03,21,1.80
2009,04,03,03,22,1.70
2009,04,03,03,23,1.70
2009,04,03,03,24,1.70
2009,04,03,03,25,1.70
2009,04,03,03,26,1.70
2009,04,03,03,27,1.60
2009,04,03,03,28,1.60
2009,04,03,03,29,1.60
2009,04,03,03,30,1.60
2009,04,03,03,31,1.50
2009,04,03,03,32,1.50
2009,04,03,03,33,1.40
2009,04,03,03,34,1.40
2009,04,03,03,35,1.40
2009,04,03,03,36,1.30
2009,04,03,03,37,1.30
2009,04,03,03,38,1.30
2009,04,03,03,39,1.30
2009,04,03,03,40,1.30
2009,04,03,03,41,1.30
2009,04,03,03,42,1.30
2009,04,03,03,43,1.30
2009,04,03,03,44,1.30
2009,04,03,03,45,1.30
2009,04,03,03,46,1.30
2009,04,03,03,47,1.30
2009,04,03,03,48,1.20
2009,04,03,03,49,1.20
2009,04,03,03,50,1.20
2009,04,03,03,51,1.20
2009,04,03,03,52,1.10
2009,04,03,03,53,1.10
2009,04,03,03,54,1.10
2009,04,03,03,55,1.10
2009,04,03,03,56,1.10
2009,04,03,03,57,1.00
2009,04,03,03,58,1.00
2009,04,03,03,59,0.90
2009,04,03,04,00,0.90
2009,04,03,04,01,0.90
2009,04,03,04,02,0.80
2009,04,03,04,03,0.80
2009,04,03,04,04,0.80
2009,04,03,04,05,0.80
2009,04,03,04,06,0.70
2009,04,03,04,07,0.70
2009,04,03,04,08,0.70
2009,04,03,04,09,0.70
2009,04,03,04,10,0.70
2009,04,03,04,11,0.70
2009,04,03,04,12,0.60
2009,04,03,04,13,0.60
2009,04,03,04,14,0.60
2009,04,03,04,15,0.50
2009,04,03,04,16,0.50
2009,04,03,04,17,0.50
2009,04,03,04,18,0.40
2009,04,03,04,19,0.40
2009,04,03,04,20,0.40
2009,04,03,04,21,0.40
2009,04,03,04,22,0.40
2009,04,03,04,23,0.40
2009,04,03,04,24,0.40
2009,04,03,04,25,0.40
2009,04,03,04,26,0.40
2009,04,03,04,27,0.40
2009,04,03,04,28,0.30
2009,04,03,04,29,0.30
2009,04,03,04,30,0.30
2009,04,03,04,31,0.40
2009,04,03,04,32,0.40
2009,04,03,04,33,0.40
2009,04,03,04,34,0.40
2009,04,03,04,35,0.40
2009,04,03,04,36,0.40
2009,04,03,04,37,0.40
2009,04,03,04,38,0.40
2009,04,03,04,39,0.40
2009,04,03,04,40,0.40
2009,04,03,04,41,0.40
2009,04,03,04,42,0.40
2009,04,03,04,43,0.40
2009,04,03,04,44,0.40
2009,04,03,04,45,0.40
2009,04,03,04,46,0.40
2009,04,03,04,47,0.40
2009,04,03,04,48,0.40
2009,04,03,04,49,0.40
2009,04,03,04,50,0.30
2009,04,03,04,51,0.30
2009,04,03,04,52,0.30
2009,04,03,04,53,0.30
2009,04,03,04,54,0.30
2009,04,03,04,55,0.30
2009,04,03,04,56,0.20
2009,04,03,04,57,0.20
2009,04,03,04,58,0.20
2009,04,03,04,59,0.20
2009,04,03,05,00,0.20
2009,04,03,05,01,0.20
2009,04,03,05,02,0.20
2009,04,03,05,03,0.20
2009,04,03,05,04,0.20
2009,04,03,05,05,0.20
2009,04,03,05,06,0.20
2009,04,03,05,07,0.10
2009,04,03,05,08,0.10
2009,04,03,05,09,0.10
2009,04,03,05,10,0.10
2009,04,03,05,11,0.10
2009,04,03,05,12,0.10
2009,04,03,05,13,0.10
2009,04,03,05,14,0.10
2009,04,03,05,15,0.10
2009,04,03,05,16,0.10
2009,04,03,05,17,0.10
2009,04,03,05,18,0.10
2009,04,03,05,19,0.10
2009,04,03,05,20,0.10
2009,04,03,05,21,0.10
2009,04,03,05,22,0.10
2009,04,03,05,23,0.10
2009,04,03,05,24,0.00
2009,04,03,05,25,0.00
2009,04,03,05,26,0.00
2009,04,03,05,27,0.00
2009,04,03,05,28,0.00
2009,04,03,05,29,0.00
2009,04,03,05,30,0.00
2009,04,03,05,31,0.00
2009,04,03,05,32,0.00
2009,04,03,05,33,0.00
2009,04,03,05,34,0.00
2009,04,03,05,35,-0.10
2009,04,03,05,36,0.00
2009,04,03,05,37,-0.10
2009,04,03,05,38,-0.10
2009,04,03,05,39,-0.10
2009,04,03,05,40,-0.10
2009,04,03,05,41,-0.10
2009,04,03,05,42,-0.10
2009,04,03,05,43,-0.10
2009,04,03,05,44,-0.10
2009,04,03,05,45,-0.10
2009,04,03,05,46,-0.10
2009,04,03,05,47,-0.10
2009,04,03,05,48,-0.10
2009,04,03,05,49,-0.10
2009,04,03,05,50,-0.10
2009,04,03,05,51,-0.10
2009,04,03,05,52,-0.10
2009,04,03,05,53,-0.10
2009,04,03,05,54,-0.10
2009,04,03,05,55,-0.10
2009,04,03,05,56,0.00
2009,04,03,05,57,0.00
2009,04,03,05,58,0.00
2009,04,03,05,59,0.00
2009,04,03,06,00,0.00
2009,04,03,06,01,0.00
2009,04,03,06,02,0.00
2009,04,03,06,03,0.00
2009,04,03,06,04,0.00
2009,04,03,06,05,0.00
2009,04,03,06,06,0.00
2009,04,03,06,07,0.10
2009,04,03,06,08,0.10
2009,04,03,06,09,0.10
2009,04,03,06,10,0.10
2009,04,03,06,11,0.10
2009,04,03,06,12,0.10
2009,04,03,06,13,0.10
2009,04,03,06,14,0.10
2009,04,03,06,15,0.20
2009,04,03,06,16,0.20
2009,04,03,06,17,0.20
2009,04,03,06,18,0.20
2009,04,03,06,19,0.20
2009,04,03,06,20,0.20
2009,04,03,06,21,0.10
2009,04,03,06,22,0.10
2009,04,03,06,23,0.10
2009,04,03,06,24,0.10
2009,04,03,06,25,0.10
2009,04,03,06,26,0.10
2009,04,03,06,27,0.10
2009,04,03,06,28,0.10
2009,04,03,06,29,0.10
2009,04,03,06,30,0.10
2009,04,03,06,31,0.10
2009,04,03,06,32,0.10
2009,04,03,06,33,0.10
2009,04,03,06,34,0.10
2009,04,03,06,35,0.10
2009,04,03,06,36,0.10
2009,04,03,06,37,0.10
2009,04,03,06,38,0.10
2009,04,03,06,39,0.10
2009,04,03,06,40,0.10
2009,04,03,06,41,0.10
2009,04,03,06,42,0.10
2009,04,03,06,43,0.10
2009,04,03,06,44,0.10
2009,04,03,06,45,0.10
2009,04,03,06,46,0.10
2009,04,03,06,47,0.10
2009,04,03,06,48,0.10
2009,04,03,06,49,0.10
2009,04,03,06,50,0.10
2009,04,03,06,51,0.10
2009,04,03,06,52,0.10
2009,04,03,06,53,0.00
2009,04,03,06,54,0.00
2009,04,03,06,55,0.00
2009,04,03,06,56,0.00
2009,04,03,06,57,0.00
2009,04,03,06,58,0.00
2009,04,03,06,59,0.00
2009,04,03,07,00,0.00
2009,04,03,07,01,0.00
2009,04,03,07,02,0.10
2009,04,03,07,03,0.10
2009,04,03,07,04,0.10
2009,04,03,07,05,0.10
2009,04,03,07,06,0.10
2009,04,03,07,07,0.10
2009,04,03,07,08,0.10
2009,04,03,07,09,0.10
2009,04,03,07,10,0.10
2009,04,03,07,11,0.10
2009,04,03,07,12,0.10
2009,04,03,07,13,0.10
2009,04,03,07,14,0.10
2009,04,03,07,15,0.10
2009,04,03,07,16,0.10
2009,04,03,07,17,0.10
2009,04,03,07,18,0.10
2009,04,03,07,19,0.10
2009,04,03,07,20,0.20
2009,04,03,07,21,0.20
2009,04,03,07,22,0.20
2009,04,03,07,23,0.20
2009,04,03,07,24,0.20
2009,04,03,07,25,0.20
2009,04,03,07,26,0.20
2009,04,03,07,27,0.20
2009,04,03,07,28,0.20
2009,04,03,07,29,0.20
2009,04,03,07,30,0.30
2009,04,03,07,31,0.30
2009,04,03,07,32,0.30
2009,04,03,07,33,0.30
2009,04,03,07,34,0.30
2009,04,03,07,35,0.30
2009,04,03,07,36,0.30
2009,04,03,07,37,0.30
2009,04,03,07,38,0.40
2009,04,03,07,39,0.40
2009,04,03,07,40,0.40
2009,04,03,07,41,0.40
2009,04,03,07,42,0.40
2009,04,03,07,43,0.40
2009,04,03,07,44,0.40
2009,04,03,07,45,0.40
2009,04,03,07,46,0.50
2009,04,03,07,47,0.50
2009,04,03,07,48,0.50
2009,04,03,07,49,0.50
2009,04,03,07,50,0.50
2009,04,03,07,51,0.60
2009,04,03,07,52,0.60
2009,04,03,07,53,0.60
2009,04,03,07,54,0.60
2009,04,03,07,55,0.60
2009,04,03,07,56,0.60
2009,04,03,07,57,0.60
2009,04,03,07,58,0.60
2009,04,03,07,59,0.70
2009,04,03,08,00,0.70
2009,04,03,08,01,0.70
2009,04,03,08,02,0.70
2009,04,03,08,03,0.70
2009,04,03,08,04,0.70
2009,04,03,08,05,0.70
2009,04,03,08,06,0.80
2009,04,03,08,07,0.80
2009,04,03,08,08,0.80
2009,04,03,08,09,0.90
2009,04,03,08,10,0.90
2009,04,03,08,11,0.90
2009,04,03,08,12,0.90
2009,04,03,08,13,1.00
2009,04,03,08,14,1.00
2009,04,03,08,15,1.00
2009,04,03,08,16,1.10
2009,04,03,08,17,1.10
2009,04,03,08,18,1.10
2009,04,03,08,19,1.10
2009,04,03,08,20,1.10
2009,04,03,08,21,1.10
2009,04,03,08,22,1.10
2009,04,03,08,23,1.20
2009,04,03,08,24,1.20
2009,04,03,08,25,1.20
2009,04,03,08,26,1.20
2009,04,03,08,27,1.20
2009,04,03,08,28,1.20
2009,04,03,08,29,1.30
2009,04,03,08,30,1.30
2009,04,03,08,31,1.30
2009,04,03,08,32,1.30
2009,04,03,08,33,1.30
2009,04,03,08,34,1.30
2009,04,03,08,35,1.30
2009,04,03,08,36,1.30
2009,04,03,08,37,1.30
2009,04,03,08,38,1.30
2009,04,03,08,39,1.30
2009,04,03,08,40,1.40
2009,04,03,08,41,1.40
2009,04,03,08,42,1.40
2009,04,03,08,43,1.50
2009,04,03,08,44,1.50
2009,04,03,08,45,1.50
2009,04,03,08,46,1.50
2009,04,03,08,47,1.60
2009,04,03,08,48,1.60
2009,04,03,08,49,1.60
2009,04,03,08,50,1.60
2009,04,03,08,51,1.60
2009,04,03,08,52,1.60
2009,04,03,08,53,1.60
2009,04,03,08,54,1.60
2009,04,03,08,55,1.70
2009,04,03,08,56,1.70
2009,04,03,08,57,1.70
2009,04,03,08,58,1.70
2009,04,03,08,59,1.80
2009,04,03,09,00,1.80
2009,04,03,09,01,1.80
2009,04,03,09,02,1.80
2009,04,03,09,03,1.90
2009,04,03,09,04,1.90
2009,04,03,09,05,1.90
2009,04,03,09,06,1.90
2009,04,03,09,07,1.90
2009,04,03,09,08,1.90
2009,04,03,09,09,2.00
2009,04,03,09,10,2.00
2009,04,03,09,11,2.00
2009,04,03,09,12,2.10
2009,04,03,09,13,2.10
2009,04,03,09,14,2.10
2009,04,03,09,15,2.10
2009,04,03,09,16,2.10
2009,04,03,09,17,2.10
2009,04,03,09,18,2.10
2009,04,03,09,19,2.20
2009,04,03,09,20,2.20
2009,04,03,09,21,2.20
2009,04,03,09,22,2.20
2009,04,03,09,23,2.20
2009,04,03,09,24,2.20
2009,04,03,09,25,2.30
2009,04,03,09,26,2.30
2009,04,03,09,27,2.30
2009,04,03,09,28,2.30
2009,04,03,09,29,2.40
2009,04,03,09,30,2.40
2009,04,03,09,31,2.40
2009,04,03,09,32,2.40
2009,04,03,09,33,2.40
2009,04,03,09,34,2.50
2009,04,03,09,35,2.50
2009,04,03,09,36,2.50
2009,04,03,09,37,2.50
2009,04,03,09,38,2.60
2009,04,03,09,39,2.60
2009,04,03,09,40,2.60
2009,04,03,09,41,2.70
2009,04,03,09,42,2.70
2009,04,03,09,43,2.70
2009,04,03,09,44,2.70
2009,04,03,09,45,2.70
2009,04,03,09,46,2.70
2009,04,03,09,47,2.70
2009,04,03,09,48,2.70
2009,04,03,09,49,2.70
2009,04,03,09,50,2.70
2009,04,03,09,51,2.70
2009,04,03,09,52,2.70
2009,04,03,09,53,2.80
2009,04,03,09,54,2.80
2009,04,03,09,55,2.80
2009,04,03,09,56,2.80
2009,04,03,09,57,2.90
2009,04,03,09,58,2.90
2009,04,03,09,59,2.90
2009,04,03,10,00,2.90
2009,04,03,10,01,3.00
2009,04,03,10,02,3.00
2009,04,03,10,03,3.00
2009,04,03,10,04,3.10
2009,04,03,10,05,3.10
2009,04,03,10,06,3.10
2009,04,03,10,07,3.20
2009,04,03,10,08,3.20
2009,04,03,10,09,3.20
2009,04,03,10,10,3.20
2009,04,03,10,11,3.20
2009,04,03,10,12,3.20
2009,04,03,10,13,3.20
2009,04,03,10,14,3.20
2009,04,03,10,15,3.20
2009,04,03,10,16,3.10
2009,04,03,10,17,3.10
2009,04,03,10,18,3.10
2009,04,03,10,19,3.10
2009,04,03,10,20,3.20
2009,04,03,10,21,3.20
2009,04,03,10,22,3.20
2009,04,03,10,23,3.20
2009,04,03,10,24,3.30
2009,04,03,10,25,3.30
2009,04,03,10,26,3.30
2009,04,03,10,27,3.30
2009,04,03,10,28,3.40
2009,04,03,10,29,3.40
2009,04,03,10,30,3.40
2009,04,03,10,31,3.40
2009,04,03,10,32,3.40
2009,04,03,10,33,3.50
2009,04,03,10,34,3.50
2009,04,03,10,35,3.60
2009,04,03,10,36,3.60
2009,04,03,10,37,3.60
2009,04,03,10,38,3.60
2009,04,03,10,39,3.70
2009,04,03,10,40,3.70
2009,04,03,10,41,3.70
2009,04,03,10,42,3.80
2009,04,03,10,43,3.80
2009,04,03,10,44,3.80
2009,04,03,10,45,3.80
2009,04,03,10,46,3.80
2009,04,03,10,47,3.80
2009,04,03,10,48,3.80
2009,04,03,10,49,3.80
2009,04,03,10,50,3.80
2009,04,03,10,51,3.80
2009,04,03,10,52,3.80
2009,04,03,10,53,3.80
2009,04,03,10,54,3.80
2009,04,03,10,55,3.80
2009,04,03,10,56,3.90
2009,04,03,10,57,3.90
2009,04,03,10,58,4.00
2009,04,03,10,59,4.00
2009,04,03,11,00,4.00
2009,04,03,11,01,4.00
2009,04,03,11,02,4.00
2009,04,03,11,03,4.00
2009,04,03,11,04,4.00
2009,04,03,11,05,3.90
2009,04,03,11,06,3.90
2009,04,03,11,07,3.90
2009,04,03,11,08,3.90
2009,04,03,11,09,3.90
2009,04,03,11,10,3.90
2009,04,03,11,11,4.00
2009,04,03,11,12,4.00
2009,04,03,11,13,4.10
2009,04,03,11,14,4.10
2009,04,03,11,15,4.10
2009,04,03,11,16,4.20
2009,04,03,11,17,4.20
2009,04,03,11,18,4.20
2009,04,03,11,19,4.30
2009,04,03,11,20,4.30
2009,04,03,11,21,4.30
2009,04,03,11,22,4.30
2009,04,03,11,23,4.30
2009,04,03,11,24,4.30
2009,04,03,11,25,4.30
2009,04,03,11,26,4.30
2009,04,03,11,27,4.30
2009,04,03,11,28,4.40
2009,04,03,11,29,4.40
2009,04,03,11,30,4.40
2009,04,03,11,31,4.40
2009,04,03,11,32,4.40
2009,04,03,11,33,4.40
2009,04,03,11,34,4.50
2009,04,03,11,35,4.50
2009,04,03,11,36,4.50
2009,04,03,11,37,4.50
2009,04,03,11,38,4.50
2009,04,03,11,39,4.50
2009,04,03,11,40,4.60
2009,04,03,11,41,4.50
2009,04,03,11,42,4.60
2009,04,03,11,43,4.60
2009,04,03,11,44,4.60
2009,04,03,11,45,4.60
2009,04,03,11,46,4.60
2009,04,03,11,47,4.60
2009,04,03,11,48,4.60
2009,04,03,11,49,4.60
2009,04,03,11,50,4.60
2009,04,03,11,51,4.60
2009,04,03,11,52,4.60
2009,04,03,11,53,4.70
2009,04,03,11,54,4.70
2009,04,03,11,55,4.70
2009,04,03,11,56,4.70
2009,04,03,11,57,4.70
2009,04,03,11,58,4.70
2009,04,03,11,59,4.70
2009,04,03,12,00,4.70
2009,04,03,12,01,4.70
2009,04,03,12,02,4.70
2009,04,03,12,03,4.80
2009,04,03,12,04,4.80
2009,04,03,12,05,4.80
2009,04,03,12,06,4.80
2009,04,03,12,07,4.80
2009,04,03,12,08,4.80
2009,04,03,12,09,4.90
2009,04,03,12,10,4.90
2009,04,03,12,11,4.90
2009,04,03,12,12,4.90
2009,04,03,12,13,4.90
2009,04,03,12,14,5.00
2009,04,03,12,15,5.00
2009,04,03,12,16,5.00
2009,04,03,12,17,5.00
2009,04,03,12,18,5.10
2009,04,03,12,19,5.10
2009,04,03,12,20,5.10
2009,04,03,12,21,5.10
2009,04,03,12,22,5.10
2009,04,03,12,23,5.10
2009,04,03,12,24,5.10
2009,04,03,12,25,5.10
2009,04,03,12,26,5.10
2009,04,03,12,27,5.10
2009,04,03,12,28,5.10
2009,04,03,12,29,5.20
2009,04,03,12,30,5.20
2009,04,03,12,31,5.20
2009,04,03,12,32,5.20
2009,04,03,12,33,5.20
2009,04,03,12,34,5.20
2009,04,03,12,35,5.30
2009,04,03,12,36,5.30
2009,04,03,12,37,5.30
2009,04,03,12,38,5.30
2009,04,03,12,39,5.30
2009,04,03,12,40,5.30
2009,04,03,12,41,5.30
2009,04,03,12,42,5.30
2009,04,03,12,43,5.30
2009,04,03,12,44,5.30
2009,04,03,12,45,5.30
2009,04,03,12,46,5.30
2009,04,03,12,47,5.40
2009,04,03,12,48,5.40
2009,04,03,12,49,5.40
2009,04,03,12,50,5.40
2009,04,03,12,51,5.40
2009,04,03,12,52,5.40
2009,04,03,12,53,5.40
2009,04,03,12,54,5.40
2009,04,03,12,55,5.50
2009,04,03,12,56,5.50
2009,04,03,12,57,5.50
2009,04,03,12,58,5.50
2009,04,03,12,59,5.50
2009,04,03,13,00,5.60
2009,04,03,13,01,5.60
2009,04,03,13,02,5.60
2009,04,03,13,03,5.60
2009,04,03,13,04,5.60
2009,04,03,13,05,5.60
2009,04,03,13,06,5.60
2009,04,03,13,07,5.60
2009,04,03,13,08,5.60
2009,04,03,13,09,5.60
2009,04,03,13,10,5.70
2009,04,03,13,11,5.70
2009,04,03,13,12,5.70
2009,04,03,13,13,5.80
2009,04,03,13,14,5.80
2009,04,03,13,15,5.90
2009,04,03,13,16,6.00
2009,04,03,13,17,6.10
2009,04,03,13,18,6.20
2009,04,03,13,19,6.20
2009,04,03,13,20,6.30
2009,04,03,13,21,6.40
2009,04,03,13,22,6.40
2009,04,03,13,23,6.50
2009,04,03,13,24,6.60
2009,04,03,13,25,6.60
2009,04,03,13,26,6.60
2009,04,03,13,27,6.70
2009,04,03,13,28,6.70
2009,04,03,13,29,6.70
2009,04,03,13,30,6.70
2009,04,03,13,31,6.80
2009,04,03,13,32,6.80
2009,04,03,13,33,6.80
2009,04,03,13,34,6.90
2009,04,03,13,35,6.90
2009,04,03,13,36,6.90
2009,04,03,13,37,6.90
2009,04,03,13,38,7.00
2009,04,03,13,39,7.00
2009,04,03,13,40,7.00
2009,04,03,13,41,7.10
2009,04,03,13,42,7.10
2009,04,03,13,43,7.10
2009,04,03,13,44,7.10
2009,04,03,13,45,7.10
2009,04,03,13,46,7.10
2009,04,03,13,47,7.10
2009,04,03,13,48,7.10
2009,04,03,13,49,7.10
2009,04,03,13,50,7.10
2009,04,03,13,51,7.00
2009,04,03,13,52,7.10
2009,04,03,13,53,7.10
2009,04,03,13,54,7.00
2009,04,03,13,55,7.00
2009,04,03,13,56,7.00
2009,04,03,13,57,7.00
2009,04,03,13,58,7.00
2009,04,03,13,59,7.00
2009,04,03,14,00,7.00
2009,04,03,14,01,7.00
2009,04,03,14,02,7.10
2009,04,03,14,03,7.10
2009,04,03,14,04,7.20
2009,04,03,14,05,7.20
2009,04,03,14,06,7.20
2009,04,03,14,07,7.20
2009,04,03,14,08,7.20
2009,04,03,14,09,7.20
2009,04,03,14,10,7.20
2009,04,03,14,11,7.20
2009,04,03,14,12,7.20
2009,04,03,14,13,7.20
2009,04,03,14,14,7.30
2009,04,03,14,15,7.30
2009,04,03,14,16,7.40
2009,04,03,14,17,7.40
2009,04,03,14,18,7.50
2009,04,03,14,19,7.50
2009,04,03,14,20,7.60
2009,04,03,14,21,7.60
2009,04,03,14,22,7.70
2009,04,03,14,23,7.70
2009,04,03,14,24,7.70
2009,04,03,14,25,7.80
2009,04,03,14,26,7.80
2009,04,03,14,27,7.80
2009,04,03,14,28,7.80
2009,04,03,14,29,7.80
2009,04,03,14,30,7.80
2009,04,03,14,31,7.90
2009,04,03,14,32,7.90
2009,04,03,14,33,8.00
2009,04,03,14,34,8.00
2009,04,03,14,35,8.10
2009,04,03,14,36,8.20
2009,04,03,14,37,8.40
2009,04,03,14,38,8.50
2009,04,03,14,39,8.60
2009,04,03,14,40,8.80
2009,04,03,14,41,8.90
2009,04,03,14,42,9.00
2009,04,03,14,43,9.10
2009,04,03,14,44,9.20
2009,04,03,14,45,9.30
2009,04,03,14,46,9.50
2009,04,03,14,47,9.60
2009,04,03,14,48,9.70
2009,04,03,14,49,9.80
2009,04,03,14,50,9.90
2009,04,03,14,51,9.90
2009,04,03,14,52,9.90
2009,04,03,14,53,9.90
2009,04,03,14,54,9.90
2009,04,03,14,55,9.80
2009,04,03,14,56,9.80
2009,04,03,14,57,9.70
2009,04,03,14,58,9.60
2009,04,03,14,59,9.60
2009,04,03,15,00,9.60
2009,04,03,15,01,9.50
2009,04,03,15,02,9.40
2009,04,03,15,03,9.40
2009,04,03,15,04,9.30
2009,04,03,15,05,9.30
2009,04,03,15,06,9.30
2009,04,03,15,07,9.30
2009,04,03,15,08,9.40
2009,04,03,15,09,9.40
2009,04,03,15,10,9.40
2009,04,03,15,11,9.30
2009,04,03,15,12,9.30
2009,04,03,15,13,9.30
2009,04,03,15,14,9.30
2009,04,03,15,15,9.30
2009,04,03,15,16,9.30
2009,04,03,15,17,9.40
2009,04,03,15,18,9.50
2009,04,03,15,19,9.60
2009,04,03,15,20,9.80
2009,04,03,15,21,9.90
2009,04,03,15,22,10.10
2009,04,03,15,23,10.20
2009,04,03,15,24,10.30
2009,04,03,15,25,10.40
2009,04,03,15,26,10.50
2009,04,03,15,27,10.60
2009,04,03,15,28,10.60
2009,04,03,15,29,10.60
2009,04,03,15,30,10.60
2009,04,03,15,31,10.60
2009,04,03,15,32,10.60
2009,04,03,15,33,10.60
2009,04,03,15,34,10.60
2009,04,03,15,35,10.60
2009,04,03,15,36,10.60
2009,04,03,15,37,10.60
2009,04,03,15,38,10.60
2009,04,03,15,39,10.60
2009,04,03,15,40,10.60
2009,04,03,15,41,10.60
2009,04,03,15,42,10.60
2009,04,03,15,43,10.70
2009,04,03,15,44,10.70
2009,04,03,15,45,10.70
2009,04,03,15,46,10.70
2009,04,03,15,47,10.70
2009,04,03,15,48,10.70
2009,04,03,15,49,10.70
2009,04,03,15,50,10.70
2009,04,03,15,51,10.70
2009,04,03,15,52,10.70
2009,04,03,15,53,10.60
2009,04,03,15,54,10.60
2009,04,03,15,55,10.60
2009,04,03,15,56,10.50
2009,04,03,15,57,10.40
2009,04,03,15,58,10.40
2009,04,03,15,59,10.30
2009,04,03,16,00,10.30
2009,04,03,16,01,10.30
2009,04,03,16,02,10.30
2009,04,03,16,03,10.40
2009,04,03,16,04,10.40
2009,04,03,16,05,10.50
2009,04,03,16,06,10.50
2009,04,03,16,07,10.50
2009,04,03,16,08,10.40
2009,04,03,16,09,10.40
2009,04,03,16,10,10.40
2009,04,03,16,11,10.40
2009,04,03,16,12,10.40
2009,04,03,16,13,10.40
2009,04,03,16,14,10.50
2009,04,03,16,15,10.50
2009,04,03,16,16,10.50
2009,04,03,16,17,10.40
2009,04,03,16,18,10.30
2009,04,03,16,19,10.30
2009,04,03,16,20,10.30
2009,04,03,16,21,10.30
2009,04,03,16,22,10.20
2009,04,03,16,23,10.20
2009,04,03,16,24,10.10
2009,04,03,16,25,10.10
2009,04,03,16,26,10.10
2009,04,03,16,27,10.10
2009,04,03,16,28,10.00
2009,04,03,16,29,9.90
2009,04,03,16,30,9.90
2009,04,03,16,31,9.80
2009,04,03,16,32,9.80
2009,04,03,16,33,9.70
2009,04,03,16,34,9.60
2009,04,03,16,35,9.50
2009,04,03,16,36,9.40
2009,04,03,16,37,9.40
2009,04,03,16,38,9.40
2009,04,03,16,39,9.40
2009,04,03,16,40,9.40
2009,04,03,16,41,9.50
2009,04,03,16,42,9.60
2009,04,03,16,43,9.60
2009,04,03,16,44,9.70
2009,04,03,16,45,9.80
2009,04,03,16,46,9.80
2009,04,03,16,47,9.80
2009,04,03,16,48,9.80
2009,04,03,16,49,9.80
2009,04,03,16,50,9.80
2009,04,03,16,51,9.80
2009,04,03,16,52,9.80
2009,04,03,16,53,9.80
2009,04,03,16,54,9.80
2009,04,03,16,55,9.90
2009,04,03,16,56,9.90
2009,04,03,16,57,9.90
2009,04,03,16,58,9.90
2009,04,03,16,59,9.90
2009,04,03,17,00,9.80
2009,04,03,17,01,9.80
2009,04,03,17,02,9.70
2009,04,03,17,03,9.60
2009,04,03,17,04,9.60
2009,04,03,17,05,9.50
2009,04,03,17,06,9.50
2009,04,03,17,07,9.40
2009,04,03,17,08,9.40
2009,04,03,17,09,9.40
2009,04,03,17,10,9.30
2009,04,03,17,11,9.30
2009,04,03,17,12,9.30
2009,04,03,17,13,9.30
2009,04,03,17,14,9.30
2009,04,03,17,15,9.40
2009,04,03,17,16,9.40
2009,04,03,17,17,9.40
2009,04,03,17,18,9.40
2009,04,03,17,19,9.50
2009,04,03,17,20,9.60
2009,04,03,17,21,9.60
2009,04,03,17,22,9.60
2009,04,03,17,23,9.70
2009,04,03,17,24,9.70
2009,04,03,17,25,9.70
2009,04,03,17,26,9.70
2009,04,03,17,27,9.70
2009,04,03,17,28,9.70
2009,04,03,17,29,9.70
2009,04,03,17,30,9.60
2009,04,03,17,31,9.60
2009,04,03,17,32,9.60
2009,04,03,17,33,9.60
2009,04,03,17,34,9.60
2009,04,03,17,35,9.60
2009,04,03,17,36,9.60
2009,04,03,17,37,9.60
2009,04,03,17,38,9.60
2009,04,03,17,39,9.60
2009,04,03,17,40,9.60
2009,04,03,17,41,9.60
2009,04,03,17,42,9.60
2009,04,03,17,43,9.50
2009,04,03,17,44,9.50
2009,04,03,17,45,9.50
2009,04,03,17,46,9.50
2009,04,03,17,47,9.40
2009,04,03,17,48,9.40
2009,04,03,17,49,9.40
2009,04,03,17,50,9.40
2009,04,03,17,51,9.40
2009,04,03,17,52,9.30
2009,04,03,17,53,9.30
2009,04,03,17,54,9.30
2009,04,03,17,55,9.30
2009,04,03,17,56,9.20
2009,04,03,17,57,9.20
2009,04,03,17,58,9.20
2009,04,03,17,59,9.20
2009,04,03,18,00,9.20
2009,04,03,18,01,9.20
2009,04,03,18,02,9.20